sat.trackr.live / text

‹ back to catalog

JILIN-1 GAOFEN 03D54

NORAD 54254 · 2022-155D

PAYLOAD ACTIVE UNKNOWN

§ Identity

Operator
Country
PRC
Launch date
2022-11-16
Launch site
JSC
Launch vehicle
Mass (kg)
RCS (m²)

External: N2YO · Heavens-Above · Gunter

§ Orbital elements

Epoch: 2026-07-05T06:00:36.762336Z

Period
88.19 min
Inclination
97.6143°
Eccentricity
0.0012127
Mean motion
16.32834755 rev/d
Perigee alt
177.0 km
Apogee alt
192.9 km
Semi-major
6,563.1 km
B*
7.9772e-4
RAAN
342.1130°
Arg perigee
265.6441°
Mean anomaly
94.3468°
Rev number
20,320

§ Raw data

JILIN-1 GAOFEN 03D541 54254U 22155D   26186.25042549  .04646595  26402-5  79772-3 0  99922 54254  97.6143 342.1130 0012127 265.6441  94.3468 16.32834755203202

JSON: /api/v1/satellites/54254 · /tle

For live sub-satellite position, see the globe view (requires WebGL).

§ Visibility from observer

Set your observer location to see the next 7 days of passes ≥ 10°. The values pass through the URL so the page stays shareable.

No JS? Fill the form by hand. The geolocation button needs JavaScript.

§ Radio — SatNOGS DB

ModeDescriptionDownlinkUplink
FM Jillin Mysterious Pip 1.616 GHz

1 transmitter · refreshed weekly from db.satnogs.org